GW3114 Weather Reports


Display with metric or nautical units.
time (UTC)temp
F
wind
direction
speed
MPH
gust
MPH
rain 1hr
in
rain 24hr
in
rain mn
in
humidity
%
barometer
mb
20260505163027 81 155 0.0 0.0 0.00 0.00 0.00 44 1011.3
20260505162023 80 268 2.0 3.0 0.00 0.00 0.00 43 1011.6
20260505161023 80 178 2.0 3.0 0.00 0.00 0.00 46 1011.8
20260505153014 77 111 4.0 6.0 0.00 0.00 0.00 51 1012.3
20260505152013 77 180 5.0 8.0 0.00 0.00 0.00 48 1012.3
20260505151011 76 199 1.0 1.0 0.00 0.00 0.00 53 1012.2
20260505124949 69 223 2.0 3.0 0.00 0.00 0.00 59 1012.5
20260505123947 68 131 3.0 4.0 0.00 0.00 0.00 57 1012.7
20260505122946 67 185 0.0 1.0 0.00 0.00 0.00 59 1012.9
20260505121946 66 164 3.0 4.0 0.00 0.00 0.00 60 1012.7
20260505120944 66 210 3.0 4.0 0.00 0.00 0.00 60 1012.3
20260505115940 65 207 0.0 1.0 0.00 0.00 0.00 63 1012.4
20260505114935 64 201 1.0 1.0 0.00 0.00 0.00 63 1012.5
20260505113933 62 213 2.0 2.0 0.00 0.00 0.00 66 1012.3
20260505112931 61 191 2.0 2.0 0.00 0.00 0.00 67 1012.4
20260505111931 60 211 2.0 3.0 0.00 0.00 0.00 69 1012.3
20260505110928 59 227 2.0 4.0 0.00 0.00 0.00 69 1012.3
20260505101926 58 268 4.0 7.0 0.00 0.00 0.00 71 1011.6
20260505100922 58 213 4.0 6.0 0.00 0.00 0.00 71 1011.5
20260505095921 58 213 0.0 1.0 0.00 0.00 0.00 72 1011.6
20260505094920 58 153 1.0 2.0 0.00 0.00 0.00 72 1011.6
20260505093919 58 242 1.0 1.0 0.00 0.00 0.00 74 1011.4
20260505092919 58 176 1.0 2.0 0.00 0.00 0.00 73 1011.3
20260505091914 58 188 1.0 2.0 0.00 0.00 0.00 73 1011.3
20260505090909 59 212 1.0 2.0 0.00 0.00 0.00 73 1011.4
20260505085904 59 216 4.0 6.0 0.00 0.00 0.00 73 1011.3
20260505084900 58 165 6.0 10.0 0.00 0.00 0.00 73 1011.1
20260505083855 58 155 2.0 2.0 0.00 0.00 0.00 75 1011.1
20260505082855 59 192 3.0 4.0 0.00 0.00 0.00 74 1011.0
20260505081854 58 172 3.0 3.0 0.00 0.00 0.00 75 1011.0
20260505080853 59 222 1.0 2.0 0.00 0.00 0.00 74 1011.0
20260505075850 59 222 2.0 3.0 0.00 0.00 0.00 75 1011.0
20260505074845 59 164 4.0 6.0 0.00 0.00 0.00 76 1011.1
20260505073845 58 171 6.0 7.0 0.00 0.00 0.00 77 1010.7
20260505072845 58 199 0.0 1.0 0.00 0.00 0.00 78 1010.7
20260505071844 58 182 2.0 3.0 0.00 0.00 0.00 78 1010.8
20260505070839 57 204 2.0 2.0 0.00 0.00 0.00 80 1010.8
20260505065836 57 176 0.0 1.0 0.00 0.00 0.00 80 1010.8
20260505064836 57 211 0.0 0.0 0.00 0.00 0.00 79 1010.7
20260505063831 58 204 0.0 0.0 0.00 0.00 0.00 78 1010.7
20260505062829 58 194 1.0 1.0 0.00 0.00 0.00 77 1010.6
20260505061829 59 188 0.0 0.0 0.00 0.00 0.00 77 1010.7
20260505060825 59 184 1.0 1.0 0.00 0.00 0.00 77 1010.9
20260505055823 58 205 0.0 0.0 0.00 0.00 0.00 77 1010.6
20260505054823 58 196 0.0 0.0 0.00 0.00 0.00 77 1010.7
20260505053818 59 187 1.0 1.0 0.00 0.00 0.00 76 1010.8
20260505052816 59 215 0.0 0.0 0.00 0.00 0.00 76 1010.8
20260505051816 59 211 0.0 0.0 0.00 0.00 0.00 75 1010.7
20260505050812 59 220 0.0 0.0 0.00 0.00 0.00 75 1010.8
20260505040803 63 245 2.0 3.0 0.00 0.00 0.00 68 1011.0
20260505035803 63 189 0.0 0.0 0.00 0.00 0.00 68 1011.0
20260505034802 63 186 1.0 1.0 0.00 0.00 0.00 67 1010.8
20260505033802 64 196 1.0 2.0 0.00 0.00 0.00 66 1010.9
20260505032757 64 210 1.0 2.0 0.00 0.00 0.00 65 1011.2
20260505031756 64 193 2.0 3.0 0.00 0.00 0.00 63 1010.9
20260505030756 64 187 1.0 1.0 0.00 0.00 0.00 63 1011.0
20260505025753 64 209 0.0 0.0 0.00 0.00 0.00 63 1011.1
20260505024749 65 222 1.0 1.0 0.00 0.00 0.00 61 1011.0
20260505023749 66 218 0.0 0.0 0.00 0.00 0.00 60 1010.9
20260505022749 66 202 2.0 2.0 0.00 0.00 0.00 59 1010.7
20260505021748 67 218 1.0 2.0 0.00 0.00 0.00 58 1011.1
20260505020747 67 221 0.0 1.0 0.00 0.00 0.00 57 1010.8
20260505015746 68 180 2.0 2.0 0.00 0.00 0.00 55 1010.7
20260505014745 68 168 1.0 1.0 0.00 0.00 0.00 53 1010.6
20260505013745 69 245 4.0 6.0 0.00 0.00 0.00 52 1010.5
20260505012740 69 167 2.0 3.0 0.00 0.00 0.00 51 1010.4
20260505011739 69 200 1.0 1.0 0.00 0.00 0.00 52 1010.4
20260505010738 70 183 1.0 1.0 0.00 0.00 0.00 51 1010.3
20260505005737 70 168 3.0 4.0 0.00 0.00 0.00 50 1010.1
20260505004737 71 220 1.0 1.0 0.00 0.00 0.00 49 1010.2
20260505003736 71 166 1.0 2.0 0.00 0.00 0.00 49 1010.0
20260505002736 71 131 3.0 4.0 0.00 0.00 0.00 48 1009.9
20260505001737 71 227 2.0 3.0 0.00 0.00 0.00 48 1009.9
20260505000736 72 205 2.0 2.0 0.00 0.00 0.00 47 1009.8
20260504235731 72 270 3.0 4.0 0.00 0.00 0.00 46 1009.9
20260504234730 72 260 3.0 6.0 0.00 0.00 0.00 46 1009.9
20260504233729 72 194 3.0 6.0 0.00 0.00 0.00 46 1009.7
20260504232728 72 171 2.0 3.0 0.00 0.00 0.00 46 1009.8
20260504231728 73 156 2.0 2.0 0.00 0.00 0.00 45 1009.7
20260504230726 73 240 4.0 4.0 0.00 0.00 0.00 44 1009.6
20260504225723 73 156 4.0 7.0 0.00 0.00 0.00 43 1009.5
20260504224722 73 168 3.0 7.0 0.00 0.00 0.00 43 1009.7
20260504223722 74 161 6.0 8.0 0.00 0.00 0.00 43 1009.2
20260504222720 75 153 3.0 7.0 0.00 0.00 0.00 43 1009.5
20260504221720 75 138 3.0 6.0 0.00 0.00 0.00 41 1009.2
20260504220719 75 247 5.0 7.0 0.00 0.00 0.00 41 1009.4
20260504215720 75 126 3.0 6.0 0.00 0.00 0.00 41 1009.4
20260504214718 75 218 2.0 2.0 0.00 0.00 0.00 41 1009.4
20260504213718 75 176 2.0 4.0 0.00 0.00 0.00 40 1009.1
20260504212717 75 190 6.0 10.0 0.00 0.00 0.00 41 1009.5
20260504211716 75 161 5.0 8.0 0.00 0.00 0.00 41 1009.6
20260504210716 75 271 2.0 3.0 0.00 0.00 0.00 41 1009.6
20260504205716 77 182 2.0 3.0 0.00 0.00 0.00 39 1009.2
20260504204712 78 285 1.0 2.0 0.00 0.00 0.00 40 1009.4
20260504203708 77 160 3.0 4.0 0.00 0.00 0.00 40 1009.4
20260504202705 78 207 2.0 3.0 0.00 0.00 0.00 38 1009.5
20260504201700 77 166 3.0 4.0 0.00 0.00 0.00 38 1009.5
20260504200655 78 236 3.0 3.0 0.00 0.00 0.00 37 1009.8
20260504195653 76 153 2.0 4.0 0.00 0.00 0.00 40 1009.8
20260504194652 77 157 2.0 4.0 0.00 0.00 0.00 45 1009.9
20260504193650 77 160 2.0 4.0 0.00 0.00 0.00 39 1010.2
20260504192646 77 211 3.0 4.0 0.00 0.00 0.00 38 1010.4
20260504191642 78 298 5.0 8.0 0.00 0.00 0.00 36 1010.4
20260504190640 74 209 0.0 1.0 0.00 0.00 0.00 44 1010.6
20260504185639 76 212 1.0 2.0 0.00 0.00 0.00 43 1010.9
20260504184638 76 163 5.0 8.0 0.00 0.00 0.00 38 1011.0
20260504183636 76 184 2.0 3.0 0.00 0.00 0.00 42 1011.4
20260504182631 75 287 1.0 2.0 0.00 0.00 0.00 40 1011.3
20260504181631 75 224 2.0 2.0 0.00 0.00 0.00 42 1011.4
20260504180628 74 166 3.0 6.0 0.00 0.00 0.00 41 1011.7
20260504175629 74 220 2.0 3.0 0.00 0.00 0.00 39 1011.9
20260504174624 76 92 3.0 3.0 0.00 0.00 0.00 42 1012.0
20260504173623 73 169 4.0 6.0 0.00 0.00 0.00 40 1012.0
20260504172622 74 191 0.0 1.0 0.00 0.00 0.00 47 1012.1
20260504171621 73 101 3.0 4.0 0.00 0.00 0.00 47 1012.4
20260504170620 72 208 1.0 2.0 0.00 0.00 0.00 50 1012.7